EW8974 Weather Reports


time (UTC)temp
C
wind
direction
speed
KPH
gust
KPH
rain 1hr
cm
rain 24hr
cm
rain mn
cm
humidity
%
barometer
mb
20260509162019 27 10 1.6 12.9 0.00 0.15 0.00 55 1004.6
20260509161517 27 27 3.2 14.5 0.00 0.15 0.00 55 1004.6
20260509161016 27 5 6.4 14.5 0.00 0.15 0.00 57 1004.6
20260509160516 27 190 3.2 11.3 0.00 0.15 0.00 56 1004.6
20260509160019 27 8 3.2 12.9 0.00 0.15 0.00 59 1004.6
20260509155513 27 170 3.2 12.9 0.00 0.15 0.00 60 1004.7
20260509155012 26 295 1.6 8.0 0.00 0.15 0.00 62 1004.7
20260509154515 26 288 3.2 8.0 0.00 0.15 0.00 63 1004.8
20260509154011 26 58 3.2 14.5 0.00 0.15 0.00 63 1004.7
20260509153509 26 49 4.8 14.5 0.00 0.15 0.00 61 1004.8
20260509153022 26 335 3.2 12.9 0.00 0.15 0.00 63 1004.7
20260509152508 26 72 4.8 12.9 0.00 0.15 0.00 63 1004.7
20260509152012 26 323 1.6 8.0 0.00 0.15 0.00 67 1004.6
20260509151505 25 335 1.6 11.3 0.00 0.15 0.00 68 1004.5
20260509151004 25 96 3.2 11.3 0.00 0.15 0.00 70 1004.4
20260509150503 25 41 1.6 8.0 0.00 0.15 0.00 72 1004.5
20260509150001 24 339 1.6 6.4 0.00 0.15 0.00 74 1004.5
20260509145600 24 307 1.6 9.7 0.00 0.15 0.00 76 1004.6
20260509145058 23 316 1.6 9.7 0.00 0.15 0.00 77 1004.6
20260509144608 23 323 3.2 8.0 0.00 0.15 0.00 78 1004.6
20260509144058 23 30 1.6 8.0 0.00 0.15 0.00 79 1004.7
20260509143554 22 328 1.6 8.0 0.00 0.15 0.00 79 1004.6
20260509143116 22 316 3.2 8.0 0.00 0.15 0.00 79 1004.7
20260509142553 22 23 4.8 9.7 0.00 0.15 0.00 80 1004.7
20260509142053 22 255 1.6 9.7 0.00 0.15 0.00 81 1004.6
20260509141551 22 123 1.6 8.0 0.00 0.15 0.00 81 1004.7
20260509141051 22 332 3.2 8.0 0.00 0.15 0.00 81 1004.8
20260509140549 22 326 1.6 9.7 0.00 0.15 0.00 82 1004.8
20260509140059 22 89 3.2 11.3 0.00 0.15 0.00 82 1004.7
20260509135548 22 63 0.0 11.3 0.00 0.15 0.00 83 1004.6
20260509135050 22 11 0.0 4.8 0.00 0.15 0.00 83 1004.7
20260509134605 21 350 0.0 6.4 0.00 0.15 0.00 84 1004.5
20260509134044 21 77 1.6 9.7 0.00 0.15 0.00 85 1004.5
20260509133546 21 290 3.2 9.7 0.00 0.15 0.00 85 1004.5
20260509133048 21 317 1.6 8.0 0.00 0.15 0.00 86 1004.4
20260509132543 21 266 0.0 9.7 0.00 0.15 0.00 87 1004.4
20260509132046 21 304 1.6 9.7 0.00 0.15 0.00 88 1004.4
20260509131540 21 281 3.2 9.7 0.00 0.15 0.00 90 1004.3
20260509131039 20 352 1.6 4.8 0.00 0.15 0.00 92 1004.1
20260509130539 20 340 0.0 3.2 0.00 0.15 0.00 93 1004.1
20260509130052 20 312 0.0 0.0 0.00 0.15 0.00 93 1003.9
20260509125537 20 312 0.0 0.0 0.00 0.15 0.00 93 1004.0
20260509125037 19 312 0.0 0.0 0.00 0.15 0.00 93 1004.0
20260509124538 19 312 0.0 0.0 0.00 0.15 0.00 93 1004.0
20260509124037 19 312 0.0 0.0 0.00 0.15 0.00 93 1003.9
20260509123538 19 312 0.0 0.0 0.00 0.15 0.00 93 1004.0
20260509123045 18 312 0.0 0.0 0.00 0.15 0.00 92 1004.0
20260509122537 18 312 0.0 0.0 0.00 0.15 0.00 92 1004.0
20260509122037 18 312 0.0 0.0 0.00 0.15 0.00 92 1004.0
20260509121544 18 312 0.0 0.0 0.00 0.15 0.00 91 1003.9
20260509121037 19 312 0.0 0.0 0.00 0.15 0.00 91 1004.1
20260509120537 19 312 0.0 0.0 0.00 0.15 0.00 91 1004.1
20260509120035 19 312 0.0 0.0 0.00 0.15 0.00 91 1004.1
20260509115535 20 312 0.0 0.0 0.00 0.15 0.00 91 1004.1
20260509115036 20 312 0.0 0.0 0.00 0.15 0.00 91 1004.2
20260509114538 20 312 0.0 1.6 0.00 0.15 0.00 91 1004.2
20260509114034 20 312 0.0 3.2 0.00 0.15 0.00 91 1004.2
20260509113537 20 312 0.0 3.2 0.00 0.15 0.00 91 1004.1
20260509113038 20 309 0.0 3.2 0.00 0.15 0.00 91 1004.1
20260509112536 20 309 0.0 3.2 0.00 0.15 0.00 91 1004.1
20260509112035 20 316 0.0 4.8 0.00 0.15 0.00 91 1004.0
20260509111540 20 317 1.6 4.8 0.00 0.15 0.00 91 1003.9
20260509111033 20 328 0.0 4.8 0.00 0.15 0.00 92 1004.0
20260509110533 20 305 0.0 8.0 0.00 0.15 0.00 92 1003.8
20260509110034 20 311 0.0 8.0 0.00 0.15 0.00 92 1003.9
20260509105531 20 242 0.0 6.4 0.00 0.15 0.00 92 1003.9
20260509105030 20 338 1.6 9.7 0.00 0.15 0.00 93 1003.9
20260509104540 20 338 3.2 9.7 0.00 0.15 0.00 93 1003.9
20260509104029 20 358 1.6 11.3 0.00 0.15 0.00 93 1003.9
20260509103529 20 310 6.4 11.3 0.00 0.15 0.00 93 1003.8
20260509103028 20 17 3.2 8.0 0.00 0.15 0.00 93 1003.5
20260509102532 20 243 0.0 6.4 0.00 0.15 0.00 93 1002.4
20260509102028 20 336 0.0 9.7 0.00 0.15 0.00 93 1002.3
20260509101536 20 270 3.2 12.9 0.00 0.15 0.00 93 1002.1
20260509101031 20 236 4.8 12.9 0.00 0.15 0.00 93 1001.9
20260509100531 20 237 3.2 12.9 0.00 0.15 0.00 93 1001.8
20260509100028 20 225 4.8 11.3 0.00 0.15 0.00 93 1001.7
20260509095528 20 233 4.8 14.5 0.00 0.15 0.00 93 1001.7
20260509095027 20 175 3.2 14.5 0.00 0.15 0.00 93 1001.6
20260509094535 20 210 4.8 16.1 0.00 0.15 0.00 93 1001.4
20260509094026 20 228 6.4 16.1 0.00 0.15 0.00 93 1001.5
20260509093526 20 240 4.8 16.1 0.00 0.15 0.00 93 1001.7
20260509093026 20 238 4.8 14.5 0.00 0.15 0.00 93 1001.8
20260509092525 20 226 4.8 14.5 0.00 0.15 0.00 93 1001.8
20260509092024 19 180 4.8 14.5 0.00 0.15 0.00 92 1001.6
20260509091536 19 215 4.8 12.9 0.00 0.15 0.00 92 1001.8
20260509091024 19 236 4.8 16.1 0.00 0.15 0.00 92 1001.7
20260509090524 19 245 4.8 16.1 0.00 0.15 0.00 92 1001.9
20260509090023 19 195 4.8 14.5 0.00 0.15 0.00 92 1002.1
20260509085519 19 161 4.8 14.5 0.00 0.15 0.00 93 1002.4
20260509085019 19 237 4.8 9.7 0.00 0.15 0.00 92 1002.4
20260509084522 19 237 1.6 6.4 0.00 0.15 0.00 92 1002.5
20260509084018 19 272 0.0 3.2 0.00 0.15 0.00 92 1002.9
20260509083516 19 231 0.0 1.6 0.00 0.15 0.00 92 1002.9
20260509083015 19 231 0.0 4.8 0.00 0.15 0.00 92 1003.2
20260509082515 20 231 1.6 4.8 0.00 0.15 0.00 92 1003.5
20260509082015 20 230 0.0 6.4 0.00 0.15 0.00 92 1003.6
20260509081523 20 180 0.0 9.7 0.00 0.15 0.00 92 1004.2
20260509081014 20 205 3.2 11.3 0.00 0.15 0.00 92 1004.2
20260509080511 20 210 1.6 12.9 0.00 0.15 0.00 92 1004.4
20260509080012 20 233 3.2 12.9 0.00 0.15 0.00 92 1004.6
20260509075511 20 192 1.6 6.4 0.00 0.15 0.00 92 1005.0
20260509075010 20 272 0.0 6.4 0.00 0.15 0.00 92 1005.5
20260509074510 20 302 1.6 6.4 0.00 0.15 0.00 92 1005.5
20260509074009 20 255 1.6 6.4 0.00 0.15 0.00 92 1005.4
20260509073509 20 276 1.6 4.8 0.00 0.15 0.00 92 1005.2
20260509073011 20 325 0.0 3.2 0.00 0.15 0.00 92 1005.4
20260509072509 20 286 0.0 3.2 0.00 0.15 0.00 92 1005.4
20260509072009 20 303 0.0 1.6 0.00 0.15 0.00 92 1005.2
20260509071509 20 303 0.0 3.2 0.00 0.15 0.00 93 1005.3
20260509071008 20 290 0.0 3.2 0.00 0.15 0.00 93 1005.4
20260509070508 20 285 0.0 1.6 0.00 0.15 0.00 93 1005.4
20260509070011 20 34 0.0 1.6 0.00 0.15 0.00 93 1005.2
20260509065509 20 34 0.0 1.6 0.00 0.15 0.00 93 1005.4
20260509065006 20 34 0.0 1.6 0.00 0.15 0.00 93 1005.4
20260509064506 19 34 0.0 1.6 0.00 0.15 0.00 93 1005.4
20260509064008 19 34 0.0 3.2 0.00 0.15 0.00 93 1005.5
20260509063505 19 41 0.0 3.2 0.00 0.15 0.00 93 1005.5
20260509063013 19 51 0.0 1.6 0.00 0.15 0.00 93 1005.2
20260509062505 19 51 0.0 3.2 0.00 0.15 0.00 93 1005.4
20260509062008 19 51 0.0 3.2 0.00 0.15 0.00 92 1005.2
20260509061505 19 77 0.0 1.6 0.00 0.15 0.00 92 1005.4
20260509061005 19 97 0.0 1.6 0.00 0.15 0.00 92 1005.4
20260509060502 19 173 0.0 1.6 0.00 0.15 0.00 92 1005.2
20260509060001 19 175 0.0 0.0 0.00 0.15 0.00 92 1005.0
20260509055501 19 175 0.0 0.0 0.00 0.15 0.00 92 1004.8
20260509055100 19 175 0.0 0.0 0.00 0.15 0.00 92 1004.7
20260509054604 19 175 0.0 0.0 0.00 0.15 0.00 92 1004.6
20260509054059 19 175 0.0 0.0 0.00 0.15 0.00 92 1004.7
20260509053559 19 175 0.0 0.0 0.00 0.15 0.00 92 1004.7
20260509053110 20 175 0.0 0.0 0.00 0.15 0.00 92 1004.9
20260509052602 20 175 0.0 0.0 0.00 0.15 0.00 92 1004.7
20260509051559 20 175 0.0 6.4 0.00 0.15 0.00 92 1004.6
20260509051056 20 224 1.6 4.8 0.00 0.15 0.00 92 1004.6
20260509050558 19 254 0.0 1.6 0.00 0.15 0.00 92 1004.6
20260509050054 19 260 0.0 1.6 0.00 0.15 0.00 91 1004.7
20260509045553 19 260 0.0 0.0 0.00 0.15 0.15 91 1004.7
20260509045053 19 260 0.0 0.0 0.00 0.15 0.15 91 1004.9
20260509044553 20 260 0.0 0.0 0.00 0.15 0.15 90 1005.1
20260509044054 20 260 0.0 0.0 0.00 0.15 0.15 90 1005.1
20260509043552 20 260 0.0 0.0 0.00 0.15 0.15 90 1005.1
20260509043054 20 260 0.0 1.6 0.00 0.15 0.15 90 1005.0
20260509042552 20 260 0.0 1.6 0.00 0.15 0.15 89 1004.9
20260509042052 20 260 0.0 0.0 0.00 0.15 0.15 89 1004.7
20260509041616 20 260 0.0 0.0 0.00 0.15 0.15 88 1004.8
20260509041052 20 260 0.0 0.0 0.00 0.15 0.15 88 1004.7
20260509040552 20 260 0.0 0.0 0.00 0.15 0.15 88 1004.7
20260509040051 21 260 0.0 0.0 0.00 0.15 0.15 87 1004.6
20260509035551 21 260 0.0 0.0 0.00 0.15 0.15 87 1004.6
20260509035051 21 260 0.0 0.0 0.00 0.15 0.15 88 1004.6
20260509034552 21 260 0.0 1.6 0.00 0.15 0.15 87 1004.5
20260509034051 21 260 0.0 1.6 0.00 0.15 0.15 87 1004.6
20260509033553 21 260 0.0 1.6 0.00 0.15 0.15 87 1004.6
20260509033050 21 260 0.0 1.6 0.00 0.15 0.15 87 1004.4
20260509032550 21 260 0.0 1.6 0.00 0.15 0.15 87 1004.3
20260509032052 21 260 0.0 1.6 0.00 0.15 0.15 87 1004.2
20260509031552 21 260 0.0 1.6 0.00 0.15 0.15 87 1004.1
20260509031050 21 260 0.0 1.6 0.00 0.15 0.15 87 1004.1
20260509030550 21 260 0.0 1.6 0.00 0.15 0.15 87 1004.0
20260509030049 21 260 0.0 3.2 0.00 0.15 0.15 87 1003.9
20260509025548 21 248 0.0 3.2 0.00 0.15 0.15 87 1003.6
20260509025048 21 234 0.0 1.6 0.00 0.15 0.15 87 1003.8
20260509024548 21 234 0.0 0.0 0.00 0.15 0.15 87 1003.9
20260509024049 21 234 0.0 0.0 0.00 0.15 0.15 86 1003.9
20260509023548 21 234 0.0 0.0 0.00 0.15 0.15 86 1003.9
20260509023105 21 234 0.0 0.0 0.00 0.15 0.15 86 1003.9
20260509022548 21 234 0.0 0.0 0.00 0.15 0.15 86 1003.8
20260509022048 21 234 0.0 1.6 0.00 0.15 0.15 86 1003.8
20260509021548 21 234 0.0 1.6 0.00 0.15 0.15 86 1003.6
20260509021047 21 234 0.0 1.6 0.00 0.15 0.15 86 1003.5
20260509020547 21 234 0.0 1.6 0.00 0.15 0.15 85 1003.5
20260509020054 21 234 0.0 0.0 0.00 0.15 0.15 85 1003.5
20260509015546 21 234 0.0 0.0 0.00 0.15 0.15 85 1003.4
20260509015046 21 234 0.0 0.0 0.00 0.15 0.15 84 1003.3
20260509014546 22 234 0.0 0.0 0.00 0.15 0.15 84 1003.3
20260509014046 22 234 0.0 1.6 0.00 0.15 0.15 84 1003.3
20260509013546 22 234 0.0 1.6 0.00 0.15 0.15 83 1003.4
20260509013051 22 234 0.0 1.6 0.00 0.15 0.15 83 1003.3
20260509012545 22 234 0.0 3.2 0.00 0.15 0.15 83 1003.2
20260509012046 22 234 0.0 4.8 0.00 0.15 0.15 82 1003.3
20260509011545 22 240 0.0 4.8 0.00 0.15 0.15 82 1003.3
20260509011044 22 250 0.0 4.8 0.00 0.15 0.15 82 1003.2
20260509010544 22 185 0.0 8.0 0.00 0.15 0.15 81 1003.1
20260509010044 22 234 0.0 8.0 0.00 0.15 0.15 81 1003.1
20260509005543 22 186 0.0 6.4 0.00 0.15 0.15 80 1002.8
20260509005043 23 237 1.6 6.4 0.00 0.15 0.15 79 1002.7
20260509004544 23 244 3.2 6.4 0.00 0.15 0.15 78 1002.7
20260509004043 23 195 0.0 3.2 0.00 0.15 0.15 78 1002.6
20260509003543 23 265 0.0 0.0 0.00 0.15 0.15 77 1002.7
20260509003043 24 266 0.0 1.6 0.00 0.15 0.15 75 1002.7
20260509002543 25 266 0.0 1.6 0.00 0.15 0.15 73 1002.8
20260509002042 25 266 0.0 1.6 0.00 0.15 0.15 71 1002.7
20260509001542 26 266 0.0 0.0 0.00 0.15 0.15 72 1002.8
20260509001042 25 266 0.0 1.6 0.00 0.15 0.15 72 1002.7
20260509000542 25 266 0.0 1.6 0.00 0.15 0.15 72 1002.8
20260509000042 25 53 0.0 1.6 0.00 0.15 0.15 73 1002.8
20260508235540 25 53 0.0 1.6 0.00 0.15 0.15 74 1002.8
20260508235039 25 271 0.0 8.0 0.00 0.15 0.15 74 1002.9
20260508234541 25 271 0.0 9.7 0.00 0.15 0.15 75 1002.8
20260508234041 25 235 3.2 9.7 0.00 0.15 0.15 72 1002.7
20260508233539 25 224 3.2 9.7 0.00 0.15 0.15 70 1002.8
20260508233039 26 245 0.0 4.8 0.00 0.15 0.15 72 1002.8
20260508232538 26 240 0.0 3.2 0.00 0.15 0.15 71 1002.9
20260508232038 25 239 0.0 6.4 0.00 0.15 0.15 72 1002.9
20260508231538 25 229 1.6 6.4 0.00 0.15 0.15 73 1002.8
20260508231038 25 250 1.6 11.3 0.00 0.15 0.15 73 1002.9
20260508230537 25 245 3.2 11.3 0.00 0.15 0.15 72 1002.9
20260508230042 25 176 0.0 8.0 0.00 0.15 0.15 73 1002.8
20260508225537 25 236 3.2 11.3 0.00 0.15 0.15 73 1002.8
20260508225037 25 216 3.2 11.3 0.00 0.15 0.15 72 1002.9
20260508224537 25 224 3.2 9.7 0.00 0.15 0.15 73 1002.8
20260508224035 25 188 0.0 12.9 0.00 0.15 0.15 76 1003.0
20260508223537 24 159 1.6 12.9 0.00 0.15 0.15 76 1002.9
20260508223035 24 160 4.8 11.3 0.00 0.15 0.15 74 1003.0
20260508222534 24 216 3.2 11.3 0.00 0.15 0.15 73 1003.0
20260508222034 25 163 1.6 11.3 0.00 0.15 0.15 73 1003.2
20260508221533 25 210 4.8 9.7 0.00 0.15 0.15 71 1003.2
20260508221034 25 246 0.0 3.2 0.00 0.15 0.15 73 1003.3
20260508220532 25 229 0.0 3.2 0.00 0.15 0.15 76 1003.3
20260508220030 23 29 0.0 1.6 0.00 0.15 0.15 76 1003.4
20260508215531 23 45 0.0 1.6 0.00 0.15 0.15 77 1003.7
20260508215028 23 325 0.0 1.6 0.00 0.15 0.15 79 1003.8
20260508214530 23 48 0.0 3.2 0.00 0.15 0.15 80 1003.9
20260508214026 23 48 0.0 4.8 0.13 0.15 0.15 77 1003.9
20260508213526 23 346 0.0 4.8 0.15 0.15 0.15 78 1003.7
20260508213036 23 234 0.0 4.8 0.15 0.15 0.15 81 1003.7
20260508212525 22 247 0.0 6.4 0.15 0.15 0.15 82 1003.5
20260508212024 21 30 1.6 6.4 0.15 0.15 0.15 84 1003.4
20260508211535 21 306 1.6 6.4 0.15 0.15 0.15 84 1003.4
20260508211024 21 186 1.6 6.4 0.15 0.15 0.15 86 1003.4
20260508210523 20 177 1.6 8.0 0.15 0.15 0.15 86 1003.5
20260508210026 20 261 0.0 4.8 0.15 0.15 0.15 88 1003.4
20260508205522 20 256 0.0 1.6 0.15 0.15 0.15 87 1003.4
20260508205020 20 256 0.0 1.6 0.15 0.15 0.15 85 1003.8
20260508204519 20 79 0.0 3.2 0.15 0.15 0.15 83 1004.3
20260508204017 20 134 0.0 9.7 0.00 0.00 0.00 79 1005.1
20260508203517 20 290 0.0 12.9 0.00 0.00 0.00 77 1005.3
20260508203017 21 240 3.2 12.9 0.00 0.00 0.00 76 1005.1
20260508202517 21 191 1.6 9.7 0.00 0.00 0.00 75 1004.9
20260508202016 21 204 1.6 9.7 0.00 0.00 0.00 74 1005.1
20260508201516 21 231 3.2 11.3 0.00 0.00 0.00 73 1005.4
20260508201016 21 201 4.8 12.9 0.00 0.00 0.00 72 1005.5
20260508200516 22 266 3.2 9.7 0.00 0.00 0.00 70 1005.6
20260508200018 22 333 1.6 9.7 0.00 0.00 0.00 69 1005.6
20260508195515 22 198 3.2 8.0 0.00 0.00 0.00 69 1005.5
20260508195014 22 205 1.6 6.4 0.00 0.00 0.00 71 1005.2
20260508194527 21 179 0.0 11.3 0.00 0.00 0.00 72 1005.1
20260508194013 21 153 6.4 11.3 0.00 0.00 0.00 70 1005.3
20260508193513 21 257 3.2 9.7 0.00 0.00 0.00 71 1005.2
20260508193013 21 182 3.2 9.7 0.00 0.00 0.00 71 1005.4
20260508192518 21 158 1.6 11.3 0.00 0.00 0.00 71 1005.4
20260508192012 21 266 0.0 11.3 0.00 0.00 0.00 71 1005.4
20260508191511 21 191 0.0 11.3 0.00 0.00 0.00 72 1005.6
20260508191011 21 219 1.6 11.3 0.00 0.00 0.00 70 1005.7
20260508190513 21 226 0.0 8.0 0.00 0.00 0.00 69 1005.8
20260508190013 21 203 1.6 9.7 0.00 0.00 0.00 70 1005.8
20260508185509 21 236 0.0 9.7 0.00 0.00 0.00 71 1005.7
20260508185012 21 274 1.6 12.9 0.00 0.00 0.00 71 1005.9
20260508184509 21 240 4.8 12.9 0.00 0.00 0.00 70 1005.9
20260508184008 21 228 3.2 9.7 0.00 0.00 0.00 70 1005.9
20260508183508 21 245 3.2 9.7 0.00 0.00 0.00 69 1006.0
20260508183011 21 243 3.2 9.7 0.00 0.00 0.00 68 1006.2
20260508182507 22 250 4.8 9.7 0.00 0.00 0.00 67 1006.4
20260508182006 22 168 3.2 6.4 0.00 0.00 0.00 67 1006.5
20260508181509 22 28 0.0 9.7 0.00 0.00 0.00 65 1006.6
20260508181006 23 221 3.2 9.7 0.00 0.00 0.00 63 1006.6
20260508180506 23 275 0.0 3.2 0.00 0.00 0.00 64 1006.5
20260508180012 23 42 0.0 4.8 0.00 0.00 0.00 64 1006.5
20260508175505 23 165 0.0 4.8 0.00 0.00 0.00 64 1006.4
20260508175010 23 192 0.0 3.2 0.00 0.00 0.00 66 1006.6
20260508174504 22 122 0.0 1.6 0.00 0.00 0.00 69 1006.5
20260508174003 22 331 0.0 1.6 0.00 0.00 0.00 67 1006.6
20260508173501 22 255 0.0 3.2 0.00 0.00 0.00 66 1006.9
20260508173003 22 255 0.0 3.2 0.00 0.00 0.00 67 1006.9
20260508172501 22 42 0.0 3.2 0.00 0.00 0.00 65 1007.1
20260508172001 23 239 0.0 1.6 0.00 0.00 0.00 65 1007.1
20260508171501 23 239 0.0 3.2 0.00 0.00 0.00 67 1007.1
20260508171101 22 360 0.0 3.2 0.00 0.00 0.00 66 1007.0
20260508170559 22 338 0.0 3.2 0.00 0.00 0.00 65 1007.2
20260508165558 23 29 0.0 6.4 0.00 0.00 0.00 65 1007.3
20260508165058 23 326 0.0 6.4 0.00 0.00 0.00 64 1007.3
20260508164600 22 27 0.0 3.2 0.00 0.00 0.00 69 1007.3
20260508164056 22 205 0.0 4.8 0.00 0.00 0.00 68 1007.3
20260508163556 22 295 0.0 4.8 0.00 0.00 0.00 68 1007.5
20260508163053 22 144 0.0 4.8 0.00 0.00 0.00 69 1007.7
20260508162553 22 269 0.0 3.2 0.00 0.00 0.00 70 1007.8